IGO6062 VOHS-VASD

Flight info

Callsign IGO6062
Flight time 1h 5m
Altitude 24000
Route TAMIV5 APUSU W218 SRD
Aircraft A320/M-SDE3FGHIRWY/LB1

Departure

Time 2026-05-01 08:37
Airport Rajiv Gandhi International Airport (VOHS)

Arrival

Time 2026-05-01 09:43
Airport Shirdi International Airport (VASD)
Time Latitude Longitude Altitude Speed Heading
2026-05-01 08:29 17.23368 78.44309 1980 ft 0 kts 269°
2026-05-01 08:31 17.23368 78.44316 1980 ft 2 kts 266°
2026-05-01 08:32 17.23369 78.44333 1981 ft 2 kts 270°
2026-05-01 08:32 17.23370 78.44356 1981 ft 2 kts 226°
2026-05-01 08:32 17.23384 78.44364 1981 ft 2 kts 182°
2026-05-01 08:32 17.23394 78.44365 1981 ft 2 kts 179°
2026-05-01 08:33 17.23400 78.44365 1983 ft 0 kts 179°
2026-05-01 08:34 17.23399 78.44365 1983 ft 0 kts 179°
2026-05-01 08:34 17.23390 78.44365 1981 ft 3 kts 179°
2026-05-01 08:34 17.23348 78.44366 1981 ft 9 kts 179°
2026-05-01 08:34 17.23269 78.44367 1982 ft 14 kts 179°
2026-05-01 08:35 17.23191 78.44368 1983 ft 9 kts 179°
2026-05-01 08:35 17.23112 78.44354 1981 ft 15 kts 218°
2026-05-01 08:35 17.23030 78.44304 1981 ft 6 kts 180°
2026-05-01 08:35 17.22962 78.44305 1981 ft 13 kts 179°
2026-05-01 08:36 17.22902 78.44283 1982 ft 7 kts 234°
2026-05-01 08:36 17.22896 78.44257 1980 ft 0 kts 270°
2026-05-01 08:36 17.22896 78.44246 1981 ft 11 kts 269°
2026-05-01 08:37 17.22892 78.43913 1980 ft 77 kts 269°
2026-05-01 08:37 17.22883 78.43161 1981 ft 127 kts 269°
2026-05-01 08:37 17.22864 78.42095 2036 ft 161 kts 269°
2026-05-01 08:37 17.22867 78.40978 2801 ft 151 kts 273°
2026-05-01 08:38 17.22864 78.39868 3315 ft 156 kts 273°
2026-05-01 08:38 17.22845 78.38663 3482 ft 176 kts 270°
2026-05-01 08:38 17.22822 78.37304 3608 ft 198 kts 272°
2026-05-01 08:38 17.22798 78.35793 3741 ft 223 kts 270°
2026-05-01 08:39 17.22770 78.34088 3974 ft 247 kts 270°
2026-05-01 08:39 17.22855 78.32238 4405 ft 260 kts 283°
2026-05-01 08:39 17.23347 78.30396 5106 ft 264 kts 287°
2026-05-01 08:39 17.23881 78.28547 5881 ft 266 kts 287°
2026-05-01 08:40 17.24982 78.24826 7411 ft 270 kts 286°
2026-05-01 08:40 17.25539 78.22942 8149 ft 273 kts 286°
2026-05-01 08:40 17.26101 78.21033 8886 ft 276 kts 286°
2026-05-01 08:41 17.26665 78.19104 9659 ft 278 kts 286°
2026-05-01 08:41 17.27235 78.17151 10195 ft 289 kts 286°
2026-05-01 08:41 17.27840 78.15060 10347 ft 311 kts 286°
2026-05-01 08:41 17.28481 78.12847 10752 ft 322 kts 287°
2026-05-01 08:42 17.29139 78.10585 11325 ft 327 kts 287°
2026-05-01 08:42 17.29806 78.08292 11956 ft 331 kts 287°
2026-05-01 08:42 17.30479 78.05983 12574 ft 334 kts 288°
2026-05-01 08:42 17.31162 78.03648 13204 ft 337 kts 288°
2026-05-01 08:43 17.31848 78.01291 13797 ft 341 kts 288°
2026-05-01 08:43 17.32539 77.98904 14342 ft 344 kts 288°
2026-05-01 08:43 17.33235 77.96497 14887 ft 347 kts 289°
2026-05-01 08:43 17.33941 77.94067 15432 ft 351 kts 289°
2026-05-01 08:44 17.34654 77.91613 15982 ft 354 kts 289°
2026-05-01 08:44 17.35372 77.89139 16540 ft 357 kts 289°
2026-05-01 08:44 17.36093 77.86647 17094 ft 360 kts 289°
2026-05-01 08:44 17.36821 77.84131 17636 ft 363 kts 289°
2026-05-01 08:45 17.37554 77.81591 18187 ft 366 kts 290°
2026-05-01 08:45 17.38291 77.79034 18657 ft 369 kts 289°
2026-05-01 08:45 17.39034 77.76454 19102 ft 372 kts 289°
2026-05-01 08:45 17.39774 77.73886 19544 ft 375 kts 289°
2026-05-01 08:46 17.40531 77.71255 19986 ft 379 kts 289°
2026-05-01 08:46 17.41293 77.68605 20432 ft 382 kts 289°
2026-05-01 08:46 17.42062 77.65926 20857 ft 385 kts 289°
2026-05-01 08:46 17.42838 77.63227 21272 ft 389 kts 289°
2026-05-01 08:47 17.43615 77.60505 21697 ft 392 kts 287°
2026-05-01 08:47 17.44108 77.57677 22098 ft 397 kts 279°
2026-05-01 08:47 17.44473 77.54798 22502 ft 401 kts 279°
2026-05-01 08:47 17.44841 77.51895 22907 ft 404 kts 279°
2026-05-01 08:48 17.45214 77.48967 23288 ft 407 kts 279°
2026-05-01 08:48 17.45590 77.46016 23630 ft 410 kts 279°
2026-05-01 08:48 17.45970 77.43052 23837 ft 412 kts 279°
2026-05-01 08:48 17.46346 77.40099 23889 ft 404 kts 279°
2026-05-01 08:49 17.46714 77.37203 23898 ft 400 kts 279°
2026-05-01 08:49 17.47080 77.34322 23895 ft 398 kts 279°
2026-05-01 08:49 17.47428 77.31584 23893 ft 398 kts 279°
2026-05-01 08:49 17.47786 77.28746 23893 ft 398 kts 279°
2026-05-01 08:50 17.48150 77.25868 23893 ft 398 kts 279°
2026-05-01 08:50 17.48514 77.22994 23894 ft 398 kts 279°
2026-05-01 08:50 17.48879 77.20115 23894 ft 399 kts 279°
2026-05-01 08:50 17.49245 77.17236 23895 ft 399 kts 279°
2026-05-01 08:51 17.49611 77.14363 23892 ft 399 kts 279°
2026-05-01 08:51 17.49977 77.11478 23895 ft 399 kts 279°
2026-05-01 08:51 17.50341 77.08597 23896 ft 399 kts 279°
2026-05-01 08:51 17.50705 77.05709 23898 ft 400 kts 279°
2026-05-01 08:52 17.51067 77.02827 23904 ft 400 kts 279°
2026-05-01 08:52 17.51427 76.99936 23902 ft 400 kts 279°
2026-05-01 08:52 17.51782 76.97087 23905 ft 400 kts 279°
2026-05-01 08:52 17.52144 76.94199 23903 ft 400 kts 279°
2026-05-01 08:53 17.52507 76.91306 23905 ft 400 kts 279°
2026-05-01 08:53 17.52869 76.88420 23906 ft 400 kts 279°
2026-05-01 08:53 17.53232 76.85529 23909 ft 400 kts 279°
2026-05-01 08:53 17.53594 76.82639 23908 ft 400 kts 279°
2026-05-01 08:54 17.53954 76.79749 23907 ft 400 kts 279°
2026-05-01 08:54 17.54333 76.76861 23912 ft 399 kts 282°
2026-05-01 08:54 17.55002 76.74052 23909 ft 397 kts 290°
2026-05-01 08:54 17.56043 76.71379 23909 ft 395 kts 298°
2026-05-01 08:55 17.57424 76.68900 23905 ft 394 kts 306°
2026-05-01 08:55 17.59140 76.66629 23893 ft 403 kts 314°
2026-05-01 08:55 17.61206 76.64583 23887 ft 415 kts 322°
2026-05-01 08:55 17.63600 76.62829 23891 ft 425 kts 330°
2026-05-01 08:56 17.66244 76.61356 23891 ft 435 kts 333°
2026-05-01 08:56 17.68964 76.59884 23892 ft 445 kts 333°
2026-05-01 08:56 17.71735 76.58382 23893 ft 453 kts 333°
2026-05-01 08:56 17.74515 76.56871 23893 ft 460 kts 333°
2026-05-01 08:57 17.77377 76.55311 23895 ft 467 kts 333°
2026-05-01 08:57 17.80281 76.53726 23892 ft 474 kts 333°
2026-05-01 08:57 17.83222 76.52118 23893 ft 480 kts 333°
2026-05-01 08:57 17.86205 76.50485 23893 ft 486 kts 333°
2026-05-01 08:58 17.89212 76.48843 23894 ft 489 kts 333°
2026-05-01 08:58 17.92234 76.47195 23894 ft 489 kts 333°
2026-05-01 08:58 17.95252 76.45548 23895 ft 489 kts 333°
2026-05-01 08:58 17.98265 76.43900 23892 ft 489 kts 333°
2026-05-01 08:59 18.01281 76.42252 23891 ft 489 kts 333°
2026-05-01 08:59 18.04310 76.40626 23894 ft 489 kts 333°
2026-05-01 08:59 18.07346 76.39025 23893 ft 488 kts 334°
2026-05-01 08:59 18.10388 76.37437 23894 ft 488 kts 334°
2026-05-01 09:00 18.13438 76.35853 23894 ft 488 kts 334°
2026-05-01 09:00 18.16477 76.34272 23891 ft 488 kts 334°
2026-05-01 09:00 18.19515 76.32679 23891 ft 487 kts 333°
2026-05-01 09:00 18.22545 76.31080 23891 ft 487 kts 333°
2026-05-01 09:01 18.25574 76.29479 23888 ft 487 kts 333°
2026-05-01 09:01 18.28596 76.27875 23887 ft 487 kts 333°
2026-05-01 09:01 18.31612 76.26272 23882 ft 486 kts 333°
2026-05-01 09:01 18.34637 76.24670 23886 ft 486 kts 333°
2026-05-01 09:02 18.37658 76.23072 23886 ft 486 kts 333°
2026-05-01 09:02 18.40677 76.21477 23882 ft 485 kts 333°
2026-05-01 09:02 18.43692 76.19881 23884 ft 485 kts 333°
2026-05-01 09:02 18.46706 76.18282 23884 ft 485 kts 333°
2026-05-01 09:03 18.49716 76.16684 23883 ft 485 kts 333°
2026-05-01 09:03 18.52729 76.15084 23882 ft 485 kts 333°
2026-05-01 09:03 18.55743 76.13487 23875 ft 485 kts 333°
2026-05-01 09:03 18.58752 76.11896 23876 ft 484 kts 333°
2026-05-01 09:04 18.61762 76.10303 23877 ft 484 kts 333°
2026-05-01 09:04 18.64772 76.08708 23877 ft 484 kts 333°
2026-05-01 09:04 18.67774 76.07113 23874 ft 483 kts 333°
2026-05-01 09:04 18.70737 76.05537 23875 ft 483 kts 333°
2026-05-01 09:05 18.73736 76.03941 23872 ft 483 kts 333°
2026-05-01 09:05 18.76739 76.02342 23873 ft 483 kts 333°
2026-05-01 09:05 18.79741 76.00743 23868 ft 483 kts 333°
2026-05-01 09:05 18.82739 75.99146 23866 ft 483 kts 333°
2026-05-01 09:06 18.85740 75.97549 23868 ft 483 kts 333°
2026-05-01 09:06 18.88734 75.95956 23862 ft 483 kts 333°
2026-05-01 09:06 18.91734 75.94359 23866 ft 482 kts 333°
2026-05-01 09:06 18.94731 75.92760 23859 ft 482 kts 333°
2026-05-01 09:07 18.97724 75.91162 23864 ft 482 kts 333°
2026-05-01 09:07 19.00718 75.89562 23865 ft 482 kts 333°
2026-05-01 09:07 19.03711 75.87965 23865 ft 482 kts 333°
2026-05-01 09:07 19.06700 75.86369 23859 ft 482 kts 333°
2026-05-01 09:08 19.09693 75.84769 23859 ft 481 kts 333°
2026-05-01 09:08 19.12676 75.83173 23862 ft 481 kts 333°
2026-05-01 09:08 19.15666 75.81576 23863 ft 481 kts 333°
2026-05-01 09:08 19.18652 75.79981 23860 ft 481 kts 333°
2026-05-01 09:09 19.21636 75.78388 23861 ft 481 kts 333°
2026-05-01 09:09 19.24622 75.76793 23864 ft 480 kts 333°
2026-05-01 09:09 19.27603 75.75200 23857 ft 480 kts 333°
2026-05-01 09:09 19.30581 75.73607 23858 ft 480 kts 333°
2026-05-01 09:10 19.33561 75.72012 23861 ft 479 kts 333°
2026-05-01 09:10 19.36536 75.70418 23861 ft 479 kts 333°
2026-05-01 09:10 19.39478 75.68838 23721 ft 466 kts 333°
2026-05-01 09:10 19.42310 75.67316 23505 ft 446 kts 333°
2026-05-01 09:11 19.45009 75.65834 23262 ft 429 kts 329°
2026-05-01 09:11 19.47350 75.63981 23001 ft 414 kts 317°
2026-05-01 09:11 19.49181 75.61696 22741 ft 402 kts 305°
2026-05-01 09:11 19.50470 75.59118 22485 ft 393 kts 294°
2026-05-01 09:12 19.51216 75.56367 22230 ft 386 kts 285°
2026-05-01 09:12 19.51754 75.53616 21981 ft 376 kts 285°
2026-05-01 09:12 19.52279 75.50940 21727 ft 366 kts 285°
2026-05-01 09:12 19.52795 75.48326 21481 ft 357 kts 285°
2026-05-01 09:13 19.53299 75.45778 21227 ft 350 kts 285°
2026-05-01 09:13 19.53796 75.43270 20992 ft 347 kts 285°
2026-05-01 09:13 19.54287 75.40786 20655 ft 342 kts 285°
2026-05-01 09:13 19.54775 75.38319 20205 ft 341 kts 285°
2026-05-01 09:14 19.55258 75.35864 19754 ft 340 kts 285°
2026-05-01 09:14 19.55740 75.33407 19289 ft 340 kts 285°
2026-05-01 09:14 19.56219 75.30960 18823 ft 339 kts 285°
2026-05-01 09:14 19.56699 75.28515 18368 ft 338 kts 285°
2026-05-01 09:15 19.57176 75.26073 17866 ft 338 kts 285°
2026-05-01 09:15 19.57648 75.23642 17392 ft 336 kts 285°
2026-05-01 09:15 19.58118 75.21226 16928 ft 333 kts 285°
2026-05-01 09:15 19.58579 75.18862 16476 ft 331 kts 285°
2026-05-01 09:16 19.59043 75.16484 16027 ft 329 kts 284°
2026-05-01 09:16 19.59506 75.14111 15580 ft 327 kts 284°
2026-05-01 09:16 19.59964 75.11750 15135 ft 327 kts 284°
2026-05-01 09:17 19.60877 75.07041 14238 ft 325 kts 283°
2026-05-01 09:17 19.61333 75.04694 13803 ft 325 kts 283°
2026-05-01 09:17 19.62244 75.00004 12880 ft 324 kts 283°
2026-05-01 09:18 19.62698 74.97672 12447 ft 323 kts 283°
2026-05-01 09:18 19.63451 74.93807 11731 ft 321 kts 283°
2026-05-01 09:19 19.64494 74.88408 10729 ft 318 kts 283°
2026-05-01 09:19 19.64935 74.86113 10303 ft 318 kts 283°
2026-05-01 09:19 19.65227 74.84591 10025 ft 317 kts 283°
2026-05-01 09:20 19.66218 74.79452 9674 ft 289 kts 284°
2026-05-01 09:20 19.66765 74.76620 8741 ft 286 kts 283°
2026-05-01 09:21 19.67567 74.72478 7284 ft 287 kts 283°
2026-05-01 09:21 19.67960 74.70426 6655 ft 285 kts 282°
2026-05-01 09:21 19.68712 74.66488 6458 ft 258 kts 282°
2026-05-01 09:22 19.69391 74.62908 6297 ft 238 kts 279°
2026-05-01 09:22 19.69403 74.59453 5695 ft 233 kts 270°
2026-05-01 09:23 19.69361 74.57769 5373 ft 224 kts 270°
2026-05-01 09:23 19.69279 74.54593 4777 ft 207 kts 270°
2026-05-01 09:24 19.69208 74.51621 4209 ft 194 kts 270°
2026-05-01 09:24 19.69175 74.50251 3956 ft 178 kts 270°
2026-05-01 09:24 19.69119 74.47907 3552 ft 146 kts 270°
2026-05-01 09:25 19.69071 74.45819 3193 ft 141 kts 270°
2026-05-01 09:25 19.69026 74.43756 2827 ft 139 kts 270°
2026-05-01 09:26 19.69001 74.42717 2644 ft 139 kts 272°
2026-05-01 09:26 19.68960 74.40675 2333 ft 138 kts 273°
2026-05-01 09:26 19.68980 74.39644 2171 ft 141 kts 270°
2026-05-01 09:27 19.68872 74.37541 2756 ft 153 kts 267°
2026-05-01 09:27 19.68789 74.36360 3400 ft 159 kts 266°
2026-05-01 09:27 19.68703 74.35151 3716 ft 172 kts 267°
2026-05-01 09:28 19.68620 74.33936 4385 ft 163 kts 267°
2026-05-01 09:28 19.68533 74.32661 4612 ft 183 kts 267°
2026-05-01 09:28 19.68485 74.31284 5066 ft 188 kts 270°
2026-05-01 09:28 19.68507 74.29895 5605 ft 189 kts 272°
2026-05-01 09:29 19.69002 74.27169 6001 ft 196 kts 309°
2026-05-01 09:29 19.70273 74.26438 6021 ft 225 kts 345°
2026-05-01 09:30 19.73482 74.26247 5997 ft 234 kts 355°
2026-05-01 09:30 19.75138 74.26240 6012 ft 246 kts 355°
2026-05-01 09:30 19.78633 74.26296 6007 ft 256 kts
2026-05-01 09:31 19.80193 74.27230 6010 ft 268 kts 44°
2026-05-01 09:31 19.81014 74.29009 6018 ft 275 kts 78°
2026-05-01 09:31 19.81041 74.33095 6011 ft 279 kts 95°
2026-05-01 09:32 19.80884 74.35145 6006 ft 279 kts 94°
2026-05-01 09:32 19.80716 74.39228 6009 ft 275 kts 90°
2026-05-01 09:32 19.80707 74.41262 6008 ft 276 kts 89°
2026-05-01 09:33 19.80727 74.43300 6012 ft 276 kts 88°
2026-05-01 09:33 19.80766 74.45333 6006 ft 275 kts 88°
2026-05-01 09:33 19.80867 74.49391 6005 ft 273 kts 87°
2026-05-01 09:34 19.80915 74.51352 5997 ft 258 kts 87°
2026-05-01 09:34 19.80959 74.53196 6001 ft 242 kts 87°
2026-05-01 09:34 19.81040 74.56594 6009 ft 224 kts 87°
2026-05-01 09:35 19.81071 74.58219 5999 ft 223 kts 90°
2026-05-01 09:35 19.79868 74.61151 6003 ft 219 kts 139°
2026-05-01 09:35 19.78621 74.62035 6003 ft 214 kts 162°
2026-05-01 09:36 19.77194 74.62374 6004 ft 208 kts 183°
2026-05-01 09:36 19.75751 74.62400 6003 ft 208 kts 184°
2026-05-01 09:36 19.74301 74.62436 6006 ft 209 kts 184°
2026-05-01 09:36 19.72850 74.62476 6004 ft 209 kts 184°
2026-05-01 09:37 19.71408 74.62443 5997 ft 205 kts 198°
2026-05-01 09:37 19.69550 74.60739 5981 ft 163 kts 255°
2026-05-01 09:37 19.69390 74.59543 5751 ft 165 kts 271°
2026-05-01 09:38 19.69342 74.57134 5262 ft 162 kts 271°
2026-05-01 09:38 19.69313 74.55953 5035 ft 159 kts 270°
2026-05-01 09:38 19.69285 74.54795 4809 ft 155 kts 270°
2026-05-01 09:39 19.69231 74.52511 4369 ft 155 kts 270°
2026-05-01 09:39 19.69204 74.51366 4135 ft 154 kts 270°
2026-05-01 09:39 19.69177 74.50254 3918 ft 147 kts 270°
2026-05-01 09:40 19.69150 74.49195 3770 ft 142 kts 270°
2026-05-01 09:40 19.69103 74.47124 3397 ft 140 kts 270°
2026-05-01 09:40 19.69080 74.46105 3223 ft 139 kts 270°
2026-05-01 09:41 19.69058 74.45085 3040 ft 139 kts 270°
2026-05-01 09:41 19.69011 74.43034 2669 ft 140 kts 272°
2026-05-01 09:41 19.68985 74.42003 2495 ft 140 kts 271°
2026-05-01 09:42 19.68959 74.40973 2320 ft 139 kts 271°
2026-05-01 09:42 19.68935 74.39947 2162 ft 140 kts 271°
2026-05-01 09:42 19.68890 74.37907 1914 ft 119 kts 269°
2026-05-01 09:43 19.68872 74.37238 1918 ft 14 kts 268°
2026-05-01 09:43 19.68828 74.37170 1919 ft 13 kts 175°
2026-05-01 09:43 19.68734 74.37174 1918 ft 15 kts 179°
2026-05-01 09:44 19.68592 74.37196 1918 ft 10 kts 113°
2026-05-01 09:44 19.68577 74.37232 1918 ft 0 kts 156°
2026-05-01 09:44 19.68567 74.37236 1918 ft 3 kts 163°
2026-05-01 09:45 19.68541 74.37240 1918 ft 5 kts 178°
2026-05-01 09:45 19.68529 74.37240 1918 ft 0 kts 180°